Austin, Texas, United States (73301)
Lat: 30.27N, Lon: 97.74W
Wx Zone: TXZ192
Local Info
Past Weather Observations for Today

NOTE: This archive is for the closest National Weather Service station to Austin. Information may differ from the station used for current weather conditions.

Click here for Long-term Archive

Time Weather Temperature Dewpoint Humidity Pressure Winds Precip Visibility
16:51
Partly Cloudy
88°F / 31°C 70°F / 21°C 55% 30.01 in
(1016 mb)
SSE 8.1 mph
(SSE 13 kph)
- 10SM
15:51
Partly Cloudy
88°F / 31°C 72°F / 22°C 59% 30.04 in
(1017 mb)
Variable 4.6 mph
(Variable 7 kph)
- 10SM
14:51
Partly Cloudy
88°F / 31°C 72°F / 22°C 59% 30.04 in
(1017 mb)
SSE 6.9 mph
(SSE 11 kph)
- 10SM
13:51
Partly Cloudy
84°F / 29°C 73°F / 23°C 70% 30.06 in
(1018 mb)
SE 6.9 mph
(SE 11 kph)
- 10SM
12:51
Clear
82°F / 28°C 70°F / 21°C 66% 30.06 in
(1018 mb)
SSE 10.4 mph
(SSE 17 kph)
- 10SM
11:51
Clear
82°F / 28°C 70°F / 21°C 66% 30.06 in
(1018 mb)
S 5.8 mph
(S 9 kph)
- 10SM
10:51
Clear
81°F / 27°C 70°F / 21°C 70% 30.12 in
(1020 mb)
Calm - 10SM
09:51
Clear
82°F / 28°C 70°F / 21°C 66% 30.12 in
(1020 mb)
Calm - 10SM
08:51
Clear
79°F / 26°C 70°F / 21°C 74% 30.12 in
(1020 mb)
Variable 5.8 mph
(Variable 9 kph)
- 10SM
07:51
Clear
73°F / 23°C 66°F / 19°C 78% 30.09 in
(1019 mb)
NE 6.9 mph
(NE 11 kph)
- 10SM
06:51
Clear
70°F / 21°C 66°F / 19°C 88% 30.09 in
(1019 mb)
Calm - 10SM
05:51
Clear
70°F / 21°C 68°F / 20°C 94% 30.04 in
(1017 mb)
Calm 0.01 in
(0.25 mm)
8SM
04:51
Partly Cloudy
Light Rain
70°F / 21°C 70°F / 21°C 100% 30.09 in
(1019 mb)
Variable 5.8 mph
(Variable 9 kph)
0.00 in
(0.00 mm)
6SM
03:51
Clear
Light Rain
72°F / 22°C 70°F / 21°C 94% 30.09 in
(1019 mb)
SSW 4.6 mph
(SSW 7 kph)
0.03 in
(0.76 mm)
10SM
02:51
Mostly Cloudy
Light Rain
75°F / 24°C 73°F / 23°C 94% 30.09 in
(1019 mb)
Variable 3.5 mph
(Variable 6 kph)
0.06 in
(1.52 mm)
4SM
02:23
Partly Cloudy
Light Rain
75°F / 24°C 73°F / 23°C 94% 30.06 in
(1018 mb)
W 3.5 mph
(W 6 kph)
0.03 in
(0.76 mm)
4SM
01:51
Mostly Cloudy
Thunder Storms
75°F / 24°C 73°F / 23°C 94% 30.09 in
(1019 mb)
SSW 3.5 mph
(SSW 6 kph)
0.06 in
(1.52 mm)
3SM
01:38
Mostly Cloudy
Light Rain
75°F / 24°C 73°F / 23°C 94% 30.06 in
(1018 mb)
SW 4.6 mph
(SW 7 kph)
0.04 in
(1.02 mm)
3SM
00:59
Mostly Cloudy
Thunder Storms
75°F / 24°C 73°F / 23°C 94% 30.06 in
(1018 mb)
S 5.8 mph
(S 9 kph)
0.01 in
(0.25 mm)
5SM
00:51
Mostly Cloudy
Light Rain
75°F / 24°C 73°F / 23°C 94% 30.04 in
(1017 mb)
Variable 5.8 mph
(Variable 9 kph)
0.02 in
(0.51 mm)
4SM
00:27
Partly Cloudy
Light Rain
75°F / 24°C 73°F / 23°C 94% 30.04 in
(1017 mb)
S 5.8 mph
(S 9 kph)
0.01 in
(0.25 mm)
7SM
00:12
Partly Cloudy
Thunder Storms
75°F / 24°C 73°F / 23°C 94% 30.04 in
(1017 mb)
S 6.9 mph
(S 11 kph)
0.00 in
(0.00 mm)
8SM
Time Weather Temperature Dewpoint Humidity Pressure Winds Precip Visibility


Weather for websites

WeatherForYou.com, LLC is not responsible for any damages or problems caused by this service. Current weather conditions are obtained from the closest station including government and personal stations which may have varying degrees of accuracy. Weather forecasts are derived from the NOAA NDFD. Like all things, this site belongs to Jesus Christ... He just trusts us to maintain it. If you have any questions or comments email webmaster@weatherforyou.com

Copyright © 2016, WeatherForYou.com LLC. All rights reserved.